Flag for Germany Past Weather in Gronau (Westfalen), North Rhine-Westphalia, Germany — Yesterday and Last 2 Weeks

Now
51 °F

Low clouds.


Feels Like: 50 °F
Forecast: 49 / 64 °F
Wind: 5 mph from Northwest

Location: Twenthe

Current Time: May 24, 2016 at 5:45:34 PM

Latest Report: May 24, 2016 at 5:00 PM


Visibility: 7 mi

Pressure: 30.01 "Hg

Humidity: 88%

Dew Point: 48 °F

Location of Gronau (Westfalen)Location

Past Weather in Gronau (Westfalen) — Graph

°F

Gronau (Westfalen) Temperature Yesterday

Maximum temperature yesterday: 61 °F (at 11:00 AM)
Minimum temperature yesterday: 51 °F (at 9:00 PM)
Average temperature yesterday: 56 °F

High & Low Weather Summary for the Past Weeks

 TemperatureHumidityPressure
High77 °F (May 11, 5:00 PM)100% (May 23, 5:00 AM)30.12 "Hg (May 23, 5:00 AM)
Low35 °F (May 16, 6:00 AM)26% (May 13, 2:00 PM)29.53 "Hg (May 12, 7:00 PM)
Average58 °F71%29.86 "Hg
* Reported May 9 4:00 PM — May 24 4:00 PM, Gronau (Westfalen), Weather by CustomWeather, © 2016

Note: Actual official high and low records may vary slightly from our data, if they occured in-between our weather recording intervals... More about our weather records

Advertising

Gronau (Westfalen) Weather History for the Previous 24 Hours

Scroll right to see more
 ConditionsComfort  
Time TempWeatherWind HumidityBarometerVisibility
4:00 PM
Tue, May 24
52 °FLow clouds.3 mph87%30.01 "Hg6 mi
3:00 PM51 °FFog.5 mph89%30.01 "Hg4 mi
2:00 PM51 °FOvercast.6 mph86%30.02 "Hg7 mi
1:00 PM51 °FRain showers. Low clouds.5 mph89%30.02 "Hg6 mi
12:00 PM51 °FLow clouds.6 mph85%30.02 "Hg13 mi
11:00 AM51 °FOvercast.5 mph86%30.02 "Hg9 mi
9:00 AM50 °FLow clouds.5 mph86%30.02 "Hg9 mi
8:00 AM50 °FOvercast.5 mph86%30.01 "Hg10 mi
7:00 AM49 °FOvercast.3 mph88%30.01 "Hg9 mi
6:00 AM49 °FLow clouds.5 mph89%30.00 "Hg9 mi
5:00 AM49 °FLow clouds.5 mph91%30.00 "Hg9 mi
4:00 AM49 °FLow clouds.5 mph94%30.01 "Hg7 mi
3:00 AM50 °FLow clouds.6 mph95%30.01 "Hg6 mi
2:00 AM50 °FLow clouds.6 mph95%30.01 "Hg5 mi
1:00 AM51 °FLow clouds.6 mph94%29.99 "Hg7 mi
12:00 AM51 °FLow clouds.5 mph95%29.99 "Hg11 mi
11:00 PM
Mon, May 23
51 °FLow clouds.5 mph95%29.98 "Hg12 mi
10:00 PM51 °FDrizzle. Low clouds.5 mph95%29.99 "Hg4 mi
9:00 PM51 °FDrizzle. Low clouds.6 mph97%29.96 "Hg2 mi
8:00 PM52 °FDrizzle. Low clouds.6 mph97%29.94 "Hg2 mi
7:00 PM53 °FDrizzle. Low clouds.7 mph97%29.91 "Hg2 mi
6:00 PM53 °FDrizzle. Low clouds.6 mph95%29.90 "Hg4 mi
5:00 PM54 °FDrizzle. Low clouds.6 mph94%29.88 "Hg7 mi
Weather by CustomWeather, © 2016

See weather overviewHow to use our weather pages